C/2015 G2 ( MASTER )

Japanese version
Home page
Updated on June 11, 2016

---------------------------------------------------------------------

* Profile

Discovery Date April 7, 2015
Magnitude 10.7 mag
Discoverer Mobile Astronomical System of the Telescope-Robots (South African Astronomical Observatory)

* Pictures

* Orbital Elements

Epoch 2015 May 18.0 TT = JDT 2457160.5
T 2015 May 23.78567 TT                                  MPCW
q   0.7798764            (2000.0)            P               Q
z  -0.0004735      Peri.  257.45850     -0.69940303     -0.50694396
 +/-0.0000009      Node   110.05822     -0.23812565     +0.82992654
e   1.0003692      Incl.  147.56369     -0.67389285     +0.23287284
From 482 observations 2015 Apr. 8-2016 Feb. 5, mean residual 0".6.

* Finding Charts

* Magnitudes Graph

        m1 = 8.5 + 5 log d + 12.0 log r

---------------------------------------------------------------------

The orbital elements are published on M.P.E.C. 2016-H35.
The charts are made with StellaNavigator Ver.8 (AstroArts).
The magnitudes graphs are made with Comet for Windows.

---------------------------------------------------------------------

Copyright(C) Seiichi Yoshida (comet@aerith.net). All rights reserved.